DateTimeUTC,F1_A11,F1_S11,BsB_S11,BsG_S11,BsR_S11,BbsB_S11,BbsG_S11,BbsR_S11,BaB_A11,BaG_A11,BaR_A11,Tu_S11,T_S11,Uu_S11,U_S11,P_S11,T1_A11
2021-12-07T19:00:00Z,00000200,21000000,,,,,,,-000.14,-000.30,-000.54,21.0,27.5,,00.0,0637.6,31.2
2021-12-07T19:01:00Z,00000200,21000000,,,,,,,-000.16,0000.21,0000.26,21.0,27.5,,00.0,0637.6,31.3
2021-12-07T19:02:00Z,00000200,21000000,,,,,,,0000.29,-000.19,-000.15,21.0,27.5,,00.0,0637.6,31.3
2021-12-07T19:03:00Z,00000200,61000000,,,,,,,0000.08,0000.43,-000.08,21.0,27.6,,00.0,0637.6,31.3
2021-12-07T19:04:00Z,00000200,41000000,0000.52,-000.01,-000.15,-000.06,0000.59,-000.10,0000.12,0000.09,0000.47,21.3,27.5,,00.0,0638.4,31.3
2021-12-07T19:05:00Z,00000200,01000000,-000.18,0000.20,-000.19,-000.76,-000.04,0000.16,-000.14,-000.04,0000.00,21.3,27.5,,00.0,0638.5,31.3
2021-12-07T19:06:00Z,00000200,01000000,0000.18,-000.01,-000.15,-000.07,0000.27,-000.02,-000.05,0000.10,-000.14,21.2,27.5,,00.0,0638.4,31.3
2021-12-07T19:07:00Z,00000200,01000000,0000.74,-000.26,-000.53,-000.63,0000.23,-000.32,0000.39,-000.02,-000.06,21.2,27.5,,00.0,0638.4,31.3
2021-12-07T19:08:00Z,00000200,01000000,0000.27,0000.08,0000.15,0000.55,0000.32,0000.08,0000.14,0000.12,0000.19,21.2,27.5,,00.0,0638.4,31.3
2021-12-07T19:09:00Z,00000200,01000000,0000.67,0000.02,-000.18,-000.56,0000.08,-000.03,0000.30,0000.25,0000.22,21.2,27.5,,00.0,0638.4,31.3
2021-12-07T19:10:00Z,00000200,01000000,-000.48,-000.17,0000.22,0000.17,0000.16,0000.26,-000.26,-000.02,0000.14,21.2,27.5,,00.0,0638.4,31.3
2021-12-07T19:11:00Z,00000200,01000000,-000.23,0000.07,-000.05,-000.57,0000.00,-000.20,0000.17,0000.30,0000.26,21.2,27.5,,00.0,0638.4,31.3
2021-12-07T19:12:00Z,00000200,01000000,-000.10,0000.15,0000.24,-000.56,-000.10,0000.36,0000.22,0000.05,-000.20,21.2,27.5,,00.0,0638.4,31.3
2021-12-07T19:13:00Z,00000200,01000000,0000.11,0000.08,0000.31,-000.50,0000.30,0000.19,-000.00,-000.05,0000.24,21.1,27.5,,00.0,0638.3,31.2
2021-12-07T19:14:00Z,00000200,01000000,-000.25,-000.25,-000.18,-000.62,-000.04,0000.48,0000.24,0000.10,0000.03,21.1,27.5,,00.0,0638.3,31.2
2021-12-07T19:15:00Z,00000200,01000000,-000.27,-000.15,0000.54,-000.31,0000.40,0000.63,-000.15,-000.01,-000.04,21.0,27.4,,00.0,0638.3,31.2
2021-12-07T19:16:00Z,00000200,01000000,0000.43,0000.16,0000.22,-000.08,0000.02,0000.62,-000.01,-000.01,-000.29,20.9,27.4,,00.0,0638.3,31.1
2021-12-07T19:17:00Z,00000200,01000000,0000.37,-000.12,0000.05,-000.05,0000.19,0000.27,0000.16,0000.08,0000.11,20.8,27.3,,00.0,0638.3,31.1
2021-12-07T19:18:00Z,00000200,01000000,-000.11,0000.28,0000.00,-000.45,0000.13,-000.12,-000.20,-000.11,-000.00,20.8,27.3,,00.0,0638.3,31.1
2021-12-07T19:19:00Z,00000200,01000000,-000.18,-000.14,-000.02,-000.35,-000.00,0000.31,0000.12,0000.08,0000.09,20.7,27.2,,00.0,0638.2,31.1
2021-12-07T19:20:00Z,00000200,01000000,-000.04,0000.51,0000.02,-000.19,0000.32,0000.03,0000.05,-000.05,-000.01,20.6,27.2,,00.0,0638.3,31.1
2021-12-07T19:21:00Z,00000200,01000000,0000.85,0000.36,0000.37,0000.27,0000.25,0000.07,-000.03,-000.23,-000.23,20.5,27.1,,00.0,0638.4,31.1
2021-12-07T19:22:00Z,00000200,01000000,-000.38,0000.32,0000.14,0000.03,0000.44,0000.17,-000.06,0000.07,0000.11,20.5,27.1,,00.0,0638.4,31.1
2021-12-07T19:23:00Z,00000200,01000000,0001.05,-000.14,0000.11,-000.20,-000.11,-000.01,-000.03,-000.33,-000.09,20.5,27.1,,00.0,0638.4,31.1
2021-12-07T19:24:00Z,00000200,01000000,0000.83,0000.10,-000.04,0000.59,-000.21,0000.31,0000.03,0000.10,0000.28,20.6,27.1,,00.0,0638.4,31.1
2021-12-07T19:25:00Z,00000200,01000000,0000.18,-000.02,0000.31,0000.03,0000.04,0000.36,-000.31,0000.07,-000.28,20.6,27.1,,00.0,0638.5,31.1
2021-12-07T19:26:00Z,00000200,01000000,-000.01,-000.27,0000.22,-000.54,0000.01,0000.01,0000.28,-000.17,0000.08,20.7,27.1,,00.0,0638.5,31.1
2021-12-07T19:27:00Z,00000200,01000000,-000.38,0000.23,-000.03,-000.76,0000.19,0000.12,-000.18,0000.59,0000.27,20.7,27.1,,00.0,0638.5,31.1
2021-12-07T19:28:00Z,00000200,01000000,0000.03,0000.19,-000.00,-000.28,0000.48,-000.15,0000.13,-000.19,-000.11,20.7,27.1,,00.0,0638.5,31.2
2021-12-07T19:29:00Z,00000200,01000000,0000.05,0000.21,0000.26,0000.03,0000.33,0000.17,-000.09,0000.04,0000.07,20.8,27.1,,00.0,0638.5,31.2
2021-12-07T19:30:00Z,00000200,01000000,0000.06,-000.08,0000.28,0000.28,-000.04,0000.08,0000.67,0000.15,0000.06,20.7,27.1,,00.0,0638.4,31.2
2021-12-07T19:31:00Z,00000200,01000000,0000.76,-000.15,-000.27,0000.68,0000.00,0000.20,0000.03,0000.14,0000.02,20.7,27.2,,00.0,0638.4,31.1
2021-12-07T19:32:00Z,00000200,01000000,0000.42,0000.03,0000.09,0000.08,0000.42,-000.11,-000.19,-000.14,0000.08,20.7,27.1,,00.0,0638.4,31.1
2021-12-07T19:33:00Z,00000200,01000000,-000.44,0000.06,0000.15,-000.75,0000.28,0000.38,-000.26,0000.11,-000.05,20.6,27.1,,00.0,0638.3,31.1
2021-12-07T19:34:00Z,00000200,01000000,0000.93,0000.03,0000.23,-000.01,0000.33,0000.23,0000.56,0000.21,0000.22,20.5,27.0,,00.0,0638.3,31.1
2021-12-07T19:35:00Z,00000200,01000000,0000.30,0000.16,-000.01,-000.43,0000.12,0000.24,-000.28,-000.45,-000.26,20.4,27.0,,00.0,0638.3,31.1
2021-12-07T19:36:00Z,00000200,01000000,0000.72,0000.05,0000.30,-000.19,0000.19,-000.09,0000.24,0000.21,0000.20,20.4,27.0,,00.0,0638.3,31.1
2021-12-07T19:37:00Z,00000200,01000000,-000.04,-000.01,-000.16,0000.79,0000.28,0000.35,-000.18,-000.02,0000.02,20.3,26.9,,00.0,0638.3,31.1
2021-12-07T19:38:00Z,00000200,01000000,0000.33,0000.03,0000.25,0000.08,0000.04,0000.23,0000.25,0000.37,-000.10,20.3,26.9,,00.0,0638.3,31.1
2021-12-07T19:39:00Z,00000200,01000000,0000.17,-000.12,0000.19,-000.21,0000.23,0000.12,0000.22,-000.23,0000.19,20.4,26.9,,00.0,0638.3,31.1
2021-12-07T19:40:00Z,00000200,01000000,-000.07,-000.06,0000.13,-000.13,0000.27,0000.17,-000.26,0000.01,0000.03,20.4,26.9,,00.0,0638.3,31.1
2021-12-07T19:41:00Z,00000200,01000000,0000.73,-000.05,0000.12,0000.21,0000.08,0000.42,-000.01,0000.38,0000.13,20.4,26.9,,00.0,0638.4,31.1
2021-12-07T19:42:00Z,00000200,01000000,0000.50,0000.08,0000.34,-000.23,0000.27,0000.35,-000.02,0000.07,-000.10,20.5,26.9,,00.0,0638.4,31.1
2021-12-07T19:43:00Z,00000200,01000000,-000.08,0000.22,0000.17,-000.26,0000.33,0000.20,0000.53,-000.31,0000.25,20.6,26.9,,00.0,0638.4,31.1
2021-12-07T19:44:00Z,00000200,01000000,-000.58,0000.18,-000.01,0000.20,0000.02,0000.14,-000.18,0000.16,0000.03,20.6,26.9,,00.0,0638.4,31.1
2021-12-07T19:45:00Z,00000200,01000000,-000.01,-000.03,0000.27,0000.28,0000.57,0000.01,0000.10,0000.22,0000.02,20.7,27.0,,00.0,0638.4,31.2
2021-12-07T19:46:00Z,00000200,01000000,-000.77,0000.06,-000.01,-000.74,0000.32,0000.34,0000.01,0000.36,0000.16,20.7,27.0,,00.0,0638.4,31.2
2021-12-07T19:47:00Z,00000200,01000000,0000.50,0000.14,0000.39,-000.32,0000.04,0000.38,0000.05,0000.01,-000.02,20.7,27.0,,00.0,0638.4,31.2
2021-12-07T19:48:00Z,00000200,01000000,-000.13,0000.20,0000.48,-000.08,-000.04,0000.17,0000.42,0000.11,0000.20,20.7,27.0,,00.0,0638.4,31.2
2021-12-07T19:49:00Z,00000200,01000000,0000.67,0000.20,-000.07,-000.23,-000.09,0000.23,-000.29,0000.05,-000.37,20.7,27.0,,00.0,0638.4,31.2
2021-12-07T19:50:00Z,00000200,01000000,0000.13,0000.30,0000.19,-000.15,0000.02,0000.24,0000.40,0000.36,0000.35,20.7,27.0,,00.0,0638.4,31.1
2021-12-07T19:51:00Z,00000200,01000000,0000.06,-000.06,0000.12,-000.04,0000.08,0000.31,-000.20,-000.35,-000.33,20.6,27.0,,00.0,0638.4,31.1
2021-12-07T19:52:00Z,00000200,01000000,-000.06,-000.20,0000.03,0000.24,-000.12,-000.04,-000.07,-000.34,0000.36,20.6,27.0,,00.0,0638.5,31.2
2021-12-07T19:53:00Z,00000200,01000000,0000.33,0000.00,0000.01,0000.48,-000.10,0000.19,-000.26,-000.01,-000.17,20.6,27.0,,00.0,0638.5,31.1
2021-12-07T19:54:00Z,00000200,01000000,-000.02,0000.24,0000.08,0000.17,-000.09,0000.18,0000.37,0000.22,-000.03,20.6,27.0,,00.0,0638.5,31.1
2021-12-07T19:55:00Z,00000200,01000000,0000.26,-000.31,-000.16,-000.47,0000.01,-000.01,-000.13,-000.28,-000.09,20.6,27.0,,00.0,0638.5,31.2
2021-12-07T19:56:00Z,00000200,01000000,-000.03,-000.07,-000.11,-000.56,0000.07,0000.12,0000.33,0000.71,0000.25,20.7,27.0,,00.0,0638.5,31.1
2021-12-07T19:57:00Z,00000200,41000000,,,,,,,0000.07,-000.11,0000.25,20.7,27.0,,00.0,0638.6,31.1
2021-12-07T19:58:00Z,00000200,61000000,,,,,,,0000.09,-000.56,-000.20,20.5,27.1,,00.0,0637.7,31.2
2021-12-07T19:59:00Z,00000200,21000000,,,,,,,-000.14,0000.26,-000.05,20.5,27.2,,00.0,0637.7,31.2
